Wind_Speed
11 11 9 13 14 16 16 16 14 10 4 5 4 3 3 4 7 9 14 18 23 24 25 26 29 31 32 31 29 27 22 20 20 25 31 32 33 26 23 24 27 26 28
13 10 9 9 9 18 20 17 13 7 6 5 4 4 3 5 12 12 18 24 27 28 29 32 29 30 34 31 29 25 20 20 21 23 29 30 30 24 22 19 21 24 23
15 12 11 7 10 16 20 16 15 12 11 9 6 5 5 8 13 18 21 25 30 32 33 33 31 31 33 31 26 25 23 26 29 29 28 33 32 34 34 36 35 34 33
15 12 10 11 11 13 16 16 16 16 14 12 10 6 5 8 13 18 21 23 27 30 32 32 31 33 34 34 28 26 28 32 33 33 35 34 34 35 35 37 39 40 42
17 19 13 15 16 18 16 17 18 17 18 15 14 9 7 9 14 19 23 27 30 33 35 35 34 35 36 33 28 29 30 31 33 32 33 32 34 36 40 43 46 48 47
20 22 23 19 21 19 17 20 19 19 20 19 16 12 11 12 16 21 25 27 31 32 36 38 40 38 34 33 29 32 32 33 34 36 35 36 36 41 45 49 51 51 50
28 29 26 26 22 20 23 23 23 22 23 21 18 16 16 18 21 24 28 31 34 34 37 40 39 35 33 31 32 34 34 33 34 36 39 42 44 50 52 54 55 55 54
29 31 29 29 26 24 24 25 25 26 26 22 19 20 22 24 28 31 32 34 36 37 41 42 40 38 38 36 35 35 37 38 40 42 44 48 50 53 55 56 58 58 59
32 31 32 31 31 28 25 24 26 28 31 28 25 24 25 29 31 25 31 35 37 39 41 42 40 36 38 39 38 37 38 42 44 46 48 50 53 54 56 58 58 56 56
40 34 33 32 34 33 30 27 28 33 34 32 29 27 30 33 31 28 30 34 37 42 46 44 41 38 37 38 39 41 40 44 45 49 50 53 55 53 54 57 55 49 46
33 33 35 36 37 36 36 36 33 35 37 37 34 32 35 33 40 36 32 36 39 43 48 44 40 40 39 40 42 43 43 43 48 51 55 55 53 52 52 50 48 46 43
46 43 40 37 42 44 43 42 41 41 45 41 44 45 32 36 37 39 39 45 43 44 49 41 40 41 39 42 43 44 44 46 50 50 51 50 50 48 47 45 43 42 41
58 55 51 48 48 47 50 50 49 49 50 50 54 42 36 36 41 46 42 41 44 45 44 43 40 42 43 42 44 43 44 45 46 45 43 43 42 41 42 43 44 44 43
57 58 59 61 65 61 51 57 57 58 58 57 40 31 37 39 44 45 49 48 47 45 46 45 44 44 45 44 42 42 41 40 40 40 38 38 41 41 41 41 42 41 39
66 69 68 60 56 58 56 60 60 70 57 59 41 34 44 48 47 48 49 52 49 47 51 47 46 44 42 41 41 39 38 35 35 34 37 35 37 37 37 37 36 34 32
55 59 59 69 60 56 61 62 66 62 26 19 33 41 46 49 55 51 52 53 42 48 50 44 44 43 39 37 36 35 34 33 32 32 31 31 32 35 36 35 35 34 32
51 55 60 62 59 54 54 62 71 47 28 36 41 44 43 48 56 57 50 42 41 44 44 43 41 37 34 33 34 34 31 30 28 28 28 31 32 34 36 36 36 35 35
54 52 53 49 60 38 58 63 62 32 33 40 50 45 49 54 54 55 50 43 45 44 42 38 35 32 31 35 34 33 29 26 25 25 28 31 32 34 34 35 35 34 34
49 26 28 31 39 47 55 56 47 43 41 46 46 54 58 53 53 55 41 38 41 41 38 34 30 30 33 33 32 28 26 23 23 26 30 32 33 34 34 34 35 34 33
35 36 36 35 40 46 51 52 45 44 46 46 48 49 50 53 49 48 40 36 38 39 34 30 30 32 34 32 28 26 23 21 23 25 27 29 32 33 34 34 34 32 32
34 37 38 41 42 43 44 51 49 42 35 45 55 53 55 47 41 36 34 34 33 31 28 28 31 33 31 27 25 21 17 20 23 24 26 28 30 31 31 33 32 30 29
32 34 36 39 41 43 40 37 48 45 51 51 54 55 57 38 34 34 36 32 28 28 28 31 31 31 28 26 21 17 17 20 21 23 25 26 28 29 30 32 31 29 29
35 38 39 41 42 42 43 43 44 42 46 50 34 28 32 32 33 30 31 29 27 29 32 33 32 30 27 24 20 16 16 18 20 23 24 26 27 28 29 30 30 28 29
39 41 48 45 45 47 50 49 43 37 31 29 30 27 29 28 29 28 28 27 27 30 31 31 29 28 27 24 19 16 18 20 21 23 24 26 27 27 28 29 29 28 27
45 52 51 55 58 58 45 29 29 33 39 28 26 29 32 32 29 29 28 28 29 31 31 29 27 28 29 26 21 19 21 22 22 22 24 25 26 26 27 28 28 28 26
27 26 25 26 27 30 28 28 29 29 31 35 39 36 33 30 32 32 30 30 31 30 29 30 28 27 30 26 23 22 23 23 22 22 23 25 25 25 25 26 26 27 27
Wind_Direction
265 257 265 259 256 223 216 205 203 189 204 230 271 293 321 5 353 356 357 356 353 358 351 344 341 336 334 330 330 330 319 323 294 292 296 299 298 289 289 296 298 299 289
262 265 271 271 249 204 195 195 202 223 253 247 271 272 264 332 352 353 357 358 353 348 342 342 335 336 338 333 327 329 318 310 310 311 310 315 308 302 298 295 292 293 288
260 262 264 251 222 194 191 196 196 210 221 235 240 277 290 321 332 337 338 343 345 344 343 338 332 329 331 324 324 319 321 313 309 309 313 313 307 302 303 308 311 310 304
259 265 266 228 214 199 208 210 215 220 214 227 242 263 295 325 336 333 329 330 335 335 335 333 327 326 327 318 310 305 310 310 311 308 309 311 306 304 303 302 301 297 297
262 275 263 243 225 223 225 232 231 226 224 225 249 255 282 321 330 329 326 326 328 331 332 332 328 325 322 315 302 299 304 304 302 302 302 301 298 299 297 295 293 292 292
258 271 267 259 245 231 237 239 244 236 240 245 255 267 285 308 315 316 313 317 323 325 324 326 326 322 319 313 304 302 303 299 299 296 299 293 288 289 291 293 291 289 291
270 275 276 257 256 252 239 245 250 245 241 245 252 268 283 296 301 301 304 316 318 321 321 322 323 325 321 312 303 304 305 299 295 293 292 290 292 291 290 291 287 289 291
259 266 272 252 255 260 251 245 248 250 251 240 255 270 284 296 293 299 292 309 314 316 317 320 320 317 310 304 308 311 307 302 300 295 292 291 291 290 293 292 292 290 290
263 259 265 247 250 257 262 252 249 251 250 252 260 273 278 288 300 302 302 303 308 310 315 317 316 308 305 311 312 309 306 300 297 294 292 292 294 293 293 293 296 289 291
258 262 262 246 243 251 257 256 254 251 252 255 259 269 273 284 299 304 300 297 301 305 311 315 314 311 311 308 307 306 300 298 296 295 294 296 297 296 296 299 305 297 300
242 251 255 251 239 244 250 253 255 256 257 258 257 260 264 284 290 300 300 295 300 309 315 317 314 311 309 310 308 303 300 298 295 296 299 298 303 305 304 303 303 299 293
255 241 244 239 241 243 248 250 249 257 252 258 256 244 267 278 280 292 301 309 306 311 314 311 309 307 307 307 304 304 301 298 297 298 299 300 301 303 303 305 304 301 297
260 260 246 244 255 252 247 248 251 251 251 252 252 258 256 274 284 290 293 299 303 309 315 311 306 308 308 304 305 304 300 301 301 302 303 304 305 306 306 304 301 298 296
258 258 256 255 254 263 265 253 249 251 245 247 243 256 258 284 277 283 294 295 298 312 314 312 310 310 308 309 310 307 304 303 303 305 308 310 311 309 308 307 304 303 301
256 258 256 256 256 259 262 259 249 247 239 239 260 268 282 278 275 282 288 292 292 307 314 310 310 309 309 311 310 307 307 304 305 309 310 312 313 314 315 313 310 306 304
253 250 256 253 247 244 253 251 250 240 229 250 256 262 272 287 278 284 288 295 295 301 305 306 306 306 309 311 310 310 307 307 308 308 312 315 319 319 318 316 315 313 311
241 239 244 250 238 235 240 239 240 256 247 248 257 271 270 285 284 289 295 302 306 307 303 303 303 306 311 313 311 307 308 306 307 309 314 319 320 320 320 318 317 318 313
240 240 237 259 258 244 246 246 267 232 234 258 262 269 279 284 278 295 291 301 306 300 299 301 302 308 312 310 308 309 306 305 306 313 316 318 320 323 321 321 319 319 321
256 249 229 251 255 248 253 258 269 259 258 263 269 279 277 274 287 290 280 295 297 295 298 298 302 308 311 307 307 304 299 299 304 309 317 319 321 324 326 325 323 319 320
263 267 264 256 250 248 254 264 274 270 272 268 276 288 293 283 277 279 290 294 293 295 294 300 303 308 305 306 304 298 297 306 312 319 322 322 323 326 329 329 326 324 324
254 254 257 256 255 257 261 267 278 267 275 276 278 282 279 270 274 287 288 289 289 290 294 301 303 304 301 298 295 294 304 313 323 326 325 324 326 330 333 335 332 331 331
257 257 254 253 252 257 263 274 266 275 274 274 274 277 275 279 284 285 283 283 285 289 295 297 298 299 294 292 290 298 308 317 325 327 326 327 331 334 335 340 338 337 337
262 259 258 256 257 259 264 265 264 284 275 268 263 268 272 268 271 278 281 285 290 293 297 301 300 298 294 286 281 295 301 311 317 322 324 327 331 336 337 340 343 342 344
257 262 258 254 253 257 267 266 270 281 252 257 265 266 275 277 277 277 279 283 288 291 295 294 291 285 281 269 272 285 295 304 311 317 320 324 327 332 336 339 343 345 343
251 264 248 246 256 260 261 245 244 248 256 254 246 273 276 277 277 278 279 282 286 288 289 287 281 273 266 260 264 277 291 299 304 310 315 319 324 328 332 337 340 344 344
252 251 246 249 250 247 245 242 245 253 255 260 253 265 270 271 272 273 277 284 288 286 284 284 279 268 260 260 263 271 282 291 297 303 309 314 317 322 328 331 335 339 343
Height
5897 5898 5898 5897 5898 5900 5903 5904 5904 5906 5908 5908 5908 5906 5905 5905 5905 5903 5901 5897 5892 5889 5886 5883 5879 5875 5871 5868 5865 5862 5859 5859 5857 5854 5853 5852 5852 5851 5850 5849 5847 5844 5843
5893 5894 5895 5894 5894 5895 5898 5900 5900 5900 5901 5902 5903 5902 5902 5901 5900 5898 5896 5893 5890 5886 5883 5880 5876 5872 5868 5864 5861 5857 5855 5854 5854 5852 5848 5845 5842 5841 5843 5843 5842 5840 5838
5889 5891 5891 5892 5892 5892 5894 5896 5898 5899 5899 5900 5900 5900 5898 5896 5895 5893 5891 5888 5885 5882 5878 5875 5872 5868 5864 5860 5856 5853 5850 5848 5845 5844 5842 5838 5834 5831 5831 5828 5825 5824 5824
5886 5888 5889 5889 5890 5890 5891 5893 5894 5895 5895 5896 5896 5895 5894 5892 5890 5888 5886 5884 5882 5878 5873 5870 5866 5863 5860 5856 5851 5847 5844 5842 5839 5836 5834 5831 5829 5826 5824 5822 5820 5817 5814
5881 5884 5886 5886 5886 5886 5888 5889 5889 5890 5890 5891 5891 5890 5888 5886 5884 5883 5880 5878 5875 5872 5868 5865 5861 5856 5853 5849 5845 5841 5838 5836 5832 5828 5827 5825 5822 5819 5815 5812 5809 5806 5803
5875 5879 5881 5881 5881 5883 5884 5884 5884 5884 5884 5884 5883 5883 5881 5880 5879 5876 5874 5872 5869 5866 5862 5858 5854 5849 5844 5841 5838 5834 5831 5828 5825 5821 5819 5816 5812 5808 5803 5800 5795 5792 5790
5870 5871 5874 5875 5876 5877 5877 5878 5878 5879 5879 5878 5878 5876 5875 5874 5873 5870 5867 5865 5862 5859 5855 5852 5847 5842 5837 5834 5831 5827 5823 5819 5816 5812 5810 5806 5803 5798 5795 5789 5784 5780 5776
5864 5864 5866 5868 5870 5870 5870 5871 5871 5871 5872 5872 5871 5870 5868 5867 5865 5863 5860 5857 5854 5850 5847 5843 5839 5834 5828 5824 5820 5818 5814 5810 5806 5802 5798 5795 5789 5784 5779 5774 5770 5765 5761
5854 5857 5858 5860 5862 5862 5863 5863 5864 5864 5864 5864 5862 5861 5860 5859 5857 5855 5852 5850 5846 5843 5839 5835 5830 5824 5819 5814 5812 5808 5804 5798 5793 5788 5784 5779 5773 5768 5763 5758 5753 5749 5745
5844 5848 5850 5851 5853 5854 5856 5856 5856 5855 5855 5855 5854 5853 5851 5849 5849 5847 5844 5842 5838 5834 5831 5826 5821 5817 5811 5806 5802 5797 5792 5786 5781 5775 5770 5764 5759 5754 5748 5743 5738 5732 5728
5835 5838 5840 5842 5845 5846 5846 5846 5847 5845 5844 5844 5843 5842 5840 5838 5837 5836 5835 5832 5827 5824 5821 5816 5811 5806 5801 5796 5790 5785 5780 5774 5769 5764 5759 5752 5746 5740 5736 5730 5724 5718 5715
5824 5825 5828 5831 5834 5835 5836 5836 5835 5833 5831 5831 5828 5823 5826 5826 5825 5825 5823 5819 5817 5813 5810 5805 5799 5795 5790 5785 5780 5774 5769 5764 5758 5752 5745 5739 5733 5727 5722 5716 5711 5707 5703
5809 5813 5816 5818 5821 5823 5823 5824 5822 5820 5818 5817 5810 5810 5812 5814 5816 5814 5812 5810 5807 5803 5799 5795 5789 5784 5779 5774 5769 5763 5757 5751 5745 5739 5733 5728 5723 5716 5711 5706 5701 5696 5691
5792 5795 5798 5801 5805 5808 5811 5811 5810 5805 5800 5799 5783 5795 5803 5803 5804 5803 5802 5799 5796 5793 5789 5784 5780 5774 5768 5763 5756 5751 5746 5740 5734 5729 5723 5717 5712 5707 5701 5696 5690 5684 5679
5776 5777 5779 5782 5787 5791 5793 5797 5793 5786 5770 5777 5784 5786 5791 5791 5791 5790 5789 5787 5784 5782 5778 5774 5770 5763 5758 5751 5745 5741 5736 5730 5726 5721 5715 5710 5704 5699 5693 5687 5681 5676 5671
5759 5760 5761 5761 5763 5767 5772 5775 5769 5760 5725 5752 5767 5774 5778 5781 5780 5779 5778 5776 5774 5770 5768 5764 5758 5753 5747 5741 5736 5732 5727 5722 5718 5713 5708 5704 5698 5692 5685 5679 5674 5669 5663
5742 5743 5746 5732 5721 5741 5751 5753 5748 5737 5749 5756 5761 5763 5767 5770 5771 5770 5768 5766 5763 5759 5756 5752 5747 5742 5737 5732 5728 5724 5720 5717 5712 5708 5703 5698 5693 5686 5680 5673 5667 5661 5655
5723 5716 5726 5724 5714 5728 5740 5746 5742 5746 5745 5751 5753 5755 5758 5760 5761 5760 5758 5754 5752 5749 5746 5741 5736 5733 5729 5725 5721 5718 5715 5711 5707 5703 5698 5693 5687 5680 5674 5667 5660 5654 5648
5709 5701 5712 5719 5724 5728 5731 5737 5742 5744 5743 5749 5750 5750 5751 5749 5749 5747 5744 5742 5742 5739 5735 5731 5727 5725 5722 5719 5715 5711 5709 5706 5702 5697 5693 5687 5681 5675 5668 5661 5654 5647 5642
5706 5710 5715 5718 5721 5724 5727 5729 5733 5735 5736 5736 5738 5739 5738 5737 5736 5736 5734 5732 5731 5729 5727 5722 5719 5716 5714 5710 5708 5706 5704 5699 5695 5690 5686 5681 5676 5669 5662 5655 5648 5642 5635
5704 5706 5709 5712 5714 5717 5720 5721 5721 5724 5725 5726 5728 5726 5724 5724 5726 5724 5723 5720 5719 5718 5714 5712 5711 5709 5705 5703 5701 5700 5696 5691 5688 5684 5680 5676 5670 5665 5658 5651 5643 5637 5631
5698 5700 5701 5702 5705 5708 5711 5713 5714 5712 5715 5713 5711 5710 5713 5713 5714 5712 5711 5710 5709 5707 5705 5704 5702 5700 5698 5696 5695 5693 5689 5686 5682 5679 5675 5671 5666 5661 5654 5648 5641 5634 5628
5688 5690 5691 5695 5697 5699 5701 5702 5703 5701 5700 5698 5699 5700 5702 5702 5702 5700 5701 5700 5698 5697 5697 5695 5693 5691 5690 5689 5688 5686 5683 5680 5678 5674 5671 5667 5662 5657 5651 5645 5639 5632 5626
5676 5680 5684 5685 5685 5687 5690 5690 5691 5691 5691 5691 5691 5691 5692 5692 5691 5690 5690 5690 5689 5688 5686 5685 5684 5682 5681 5683 5681 5679 5677 5675 5672 5669 5665 5662 5658 5654 5649 5643 5637 5631 5625
5667 5670 5672 5671 5674 5677 5678 5676 5678 5682 5684 5683 5682 5682 5682 5682 5681 5681 5682 5680 5679 5678 5677 5676 5676 5673 5673 5675 5672 5671 5670 5668 5666 5664 5660 5657 5653 5650 5645 5640 5635 5630 5624
5658 5659 5660 5662 5663 5667 5668 5667 5669 5672 5672 5671 5672 5673 5672 5673 5672 5672 5671 5670 5668 5668 5668 5668 5668 5665 5665 5666 5664 5663 5663 5661 5659 5657 5655 5652 5649 5646 5642 5637 5633 5628 5623